Temperature
25 22 22 22 23 24 25 25 25 26 27 26 26 26 27 26 25 23 22 22 21 21 22 22 22 22 22 22 21 21 20 20 20 19 19 19 19 19 19 19 19 19 19 19
22 22 24 25 26 26 26 25 25 25 26 26 26 25 25 24 24 23 22 21 21 21 22 23 23 22 22 21 21 21 20 20 19 19 19 18 18 18 18 18 19 19 19 18
23 24 27 27 27 26 26 25 25 25 24 24 24 22 22 22 22 22 21 21 22 22 23 23 23 23 23 22 22 21 20 20 19 19 18 18 18 18 18 18 18 18 18 18
25 27 27 27 26 26 24 26 26 25 23 21 23 21 21 21 21 20 21 21 22 22 22 22 23 23 23 22 22 21 20 20 19 18 18 18 17 17 17 17 17 17 17 17
25 26 26 26 27 27 26 26 25 24 23 21 21 21 20 20 20 20 20 21 22 22 23 23 23 23 23 22 21 21 20 20 19 18 18 17 17 17 17 17 17 17 17 17
26 27 27 27 27 27 26 24 22 20 19 20 21 21 20 19 20 20 20 21 22 23 23 23 23 23 22 22 21 21 20 19 19 18 17 17 17 16 16 16 16 16 16 16
24 25 26 27 26 25 24 20 19 19 18 19 20 20 19 20 20 20 21 22 23 23 23 23 23 22 22 21 21 20 20 19 18 18 17 17 16 16 16 16 16 16 16 16
23 23 25 27 26 25 25 21 19 19 19 19 20 20 20 21 21 22 23 23 23 23 23 23 23 22 22 21 21 20 19 19 18 17 17 16 16 15 15 15 15 15 15 15
23 23 26 27 27 26 25 22 20 18 19 19 19 21 21 21 21 21 22 23 23 24 23 23 23 22 22 21 21 20 19 19 18 17 16 16 15 15 15 14 14 14 14 14
24 23 24 25 26 25 25 23 18 19 19 18 19 20 19 20 20 20 20 22 23 24 23 23 23 22 22 21 21 20 19 18 18 17 16 15 15 14 14 14 14 14 13 13
23 21 22 22 23 24 23 23 20 17 17 18 18 18 20 20 19 19 20 22 23 23 23 23 22 22 22 21 21 20 19 18 18 17 16 15 15 14 14 13 13 13 13 13
22 18 19 20 22 23 24 23 20 19 19 17 17 17 19 19 19 20 20 21 21 21 22 22 22 22 21 21 20 20 19 18 18 16 16 15 14 14 13 13 13 12 12 12
21 18 18 18 19 20 22 23 22 18 17 16 17 18 18 17 17 18 18 18 19 19 20 20 20 20 20 20 20 20 19 18 17 16 15 15 14 14 13 13 12 12 12 12
20 18 18 19 19 20 20 21 22 20 17 17 17 17 16 15 15 16 16 16 16 17 17 18 18 19 19 19 19 19 19 18 17 16 15 15 14 13 13 12 12 12 11 11
19 19 20 19 20 21 21 22 22 20 19 17 16 15 15 14 14 14 14 14 14 15 15 15 16 16 17 18 18 18 18 18 17 16 15 15 14 13 13 12 12 11 11 11
19 20 20 20 21 21 21 20 20 18 17 16 15 14 14 14 14 13 13 13 13 13 13 13 14 15 15 15 16 17 17 17 17 16 16 15 14 13 13 12 12 11 11 11
18 18 19 18 19 20 18 18 16 14 14 14 13 13 12 13 13 12 12 12 12 12 12 12 12 12 13 13 14 15 16 17 17 16 16 15 14 13 13 12 12 11 11 11
18 17 16 17 19 19 17 17 16 13 12 12 12 12 12 12 12 13 13 12 11 11 11 11 11 11 11 12 13 14 15 15 16 16 15 15 14 13 13 12 12 11 11 11
18 17 16 16 17 18 17 16 15 14 11 11 11 11 11 11 12 13 12 11 11 11 10 10 10 10 10 11 11 12 13 14 14 15 15 14 14 13 13 12 12 12 11 11
17 16 16 16 17 17 14 14 14 14 11 11 11 10 10 10 9 10 11 11 11 11 10 10 10 10 10 10 10 10 11 12 12 13 14 14 14 13 13 13 12 12 11 11
17 16 16 16 16 14 11 12 14 14 12 10 10 10 9 9 9 10 10 10 10 10 10 10 10 10 10 9 9 9 10 10 10 11 12 13 13 13 13 13 12 12 11 11
14 14 14 14 15 13 10 11 11 10 11 10 10 9 9 9 9 10 10 10 10 10 10 10 10 10 10 9 9 9 9 9 9 10 11 11 12 13 13 13 12 12 11 11
11 11 11 11 11 10 10 10 11 10 10 9 9 9 9 9 9 10 10 10 10 10 10 10 10 10 9 9 9 9 9 9 9 9 9 10 11 12 12 12 12 12 11 11
10 11 11 10 10 10 10 11 10 10 10 10 10 10 9 9 10 10 10 10 10 10 10 10 10 9 9 9 9 9 8 8 8 8 9 9 10 11 12 12 12 12 11 11
9 10 10 10 10 10 11 11 11 10 10 10 10 10 10 10 10 10 10 10 10 10 10 9 9 9 9 9 8 8 8 8 8 8 8 9 10 10 11 12 12 12 12 12
9 8 8 8 9 9 10 11 11 10 10 10 10 10 10 10 10 10 9 9 9 9 9 9 8 8 8 8 8 8 8 8 7 8 8 8 9 10 11 11 12 12 12 12
Wind_Speed
2 2 4 8 8 9 6 4 5 6 8 7 6 4 5 5 8 10 10 12 13 12 9 10 10 9 8 6 7 4 3 2 1 2 3 5 6 6 6 7 7 7 7 8
4 6 13 10 6 3 2 4 5 5 8 7 6 6 7 6 2 7 10 11 11 9 8 8 8 8 8 7 7 5 4 3 2 1 2 4 4 5 6 6 7 7 7 7
8 8 5 2 4 6 4 3 3 4 6 6 6 8 8 7 7 8 7 8 10 11 9 6 6 6 7 6 6 5 4 3 1 1 1 2 3 3 4 4 5 6 6 7
3 3 3 2 4 2 3 2 5 6 6 5 4 3 7 3 6 5 5 5 6 7 7 6 6 5 5 5 5 5 4 3 2 1 1 1 2 4 5 5 5 7 6 7
5 4 4 3 3 2 1 3 6 5 4 4 5 1 6 2 2 4 5 6 6 7 8 8 8 8 7 6 6 5 4 3 2 1 1 1 3 4 5 5 6 6 6 6
5 4 2 2 2 3 3 7 9 8 5 2 4 1 6 4 6 5 5 6 8 8 8 8 8 7 6 6 5 5 4 2 1 1 0 1 3 5 6 6 6 6 5 5
6 7 5 1 3 6 7 7 6 7 6 5 4 0 7 8 6 8 8 9 10 9 9 9 9 9 8 7 6 5 5 3 2 1 1 1 3 4 5 6 6 6 5 5
2 6 5 3 1 1 1 8 6 3 4 6 4 1 7 6 6 8 9 9 10 10 9 10 11 10 9 9 8 7 6 5 3 2 1 1 2 2 3 5 5 5 5 6
1 4 5 5 2 3 1 2 8 7 2 2 4 3 5 3 4 7 9 8 10 10 10 10 9 8 8 9 8 8 7 5 4 3 2 2 1 2 3 4 4 4 5 6
3 2 6 7 3 2 4 4 6 4 1 3 6 4 4 7 9 9 9 10 10 8 7 7 7 7 8 8 7 7 7 7 5 4 3 2 1 2 2 3 4 5 5 6
4 3 6 6 3 4 3 1 4 4 5 5 4 6 5 7 7 7 7 5 4 4 4 5 6 7 7 7 7 7 7 6 5 5 4 3 2 1 1 2 3 4 5 5
4 5 2 7 8 4 2 3 5 3 5 5 4 6 10 6 6 5 6 6 7 6 4 2 3 4 5 7 7 8 7 7 6 6 5 4 3 2 1 2 3 3 4 5
5 6 4 9 9 8 5 4 2 4 4 5 5 3 10 12 14 13 12 12 12 12 11 7 5 3 4 5 6 7 8 8 7 6 6 4 3 2 2 2 2 3 3 4
6 5 6 5 8 7 9 11 11 4 4 6 4 3 9 12 12 13 13 13 14 15 15 14 11 8 6 5 5 6 7 8 8 7 7 6 5 5 4 3 2 2 2 2
5 4 6 7 8 7 9 12 13 8 6 5 6 6 7 9 9 10 12 14 17 18 18 17 16 13 10 8 6 6 7 7 8 8 8 7 6 5 4 4 3 2 1 1
4 4 2 4 7 8 7 10 6 8 7 9 9 7 7 8 8 10 12 15 16 16 17 17 16 16 15 13 10 8 7 7 8 9 9 8 7 7 6 5 4 3 1 0
3 5 2 4 7 6 5 7 7 8 10 6 6 4 8 10 12 8 9 13 14 15 16 17 16 15 15 15 13 11 10 7 8 10 10 9 9 8 7 7 6 5 3 2
7 6 4 2 3 1 2 7 11 11 11 10 6 6 8 10 10 4 7 10 13 14 14 14 14 15 15 15 16 14 11 7 7 9 9 10 10 9 8 8 7 6 4 4
8 8 5 4 3 4 4 4 4 1 4 7 6 8 10 11 8 4 5 8 9 10 10 10 10 11 12 14 16 16 13 10 7 7 9 10 11 11 10 10 9 7 6 5
6 5 5 4 4 5 2 10 13 2 3 4 8 9 11 11 9 7 11 13 13 12 11 10 11 10 11 13 13 14 13 12 10 10 10 9 11 12 12 12 10 7 6 7
5 5 2 2 4 1 6 12 10 2 5 8 8 9 10 7 8 12 15 15 14 14 13 12 11 10 10 11 11 12 12 12 13 13 11 9 10 12 13 12 10 9 9 9
4 4 4 3 3 2 7 6 4 3 6 8 10 11 12 13 16 16 16 15 15 15 14 12 11 11 10 10 9 11 12 12 12 12 12 10 9 11 12 12 11 11 11 11
5 1 1 2 0 3 2 2 4 5 8 9 10 13 15 17 18 19 18 17 16 15 14 12 12 12 11 10 9 11 12 12 11 12 12 11 10 10 11 13 14 12 12 11
6 5 4 3 1 3 5 5 5 7 10 12 15 17 17 19 20 20 18 16 15 14 14 12 12 12 12 11 11 11 12 11 10 11 11 10 9 9 10 12 12 13 13 12
5 6 4 2 3 7 6 7 9 11 14 16 18 18 18 19 20 19 17 16 15 14 12 11 11 12 13 12 12 12 10 10 11 10 10 10 9 9 10 12 13 15 14 16
2 2 2 3 5 5 10 11 13 15 17 19 19 19 18 17 18 18 16 14 13 13 12 12 12 12 14 13 12 11 10 10 10 9 9 8 8 7 9 10 10 13 13 18
Wind_Direction
267 97 249 241 215 214 243 281 310 321 341 48 59 47 17 52 101 116 115 112 107 106 111 105 103 103 100 91 90 88 88 88 127 214 236 249 256 259 262 259 257 255 250 242
344 263 245 245 252 263 330 5 353 348 357 35 24 14 7 26 76 136 128 124 118 115 111 109 110 108 104 103 101 95 93 106 127 217 241 249 258 264 259 266 271 266 261 252
226 248 240 244 342 355 3 58 40 7 1 26 43 355 351 3 59 88 99 117 126 130 129 121 111 112 109 111 119 123 130 128 136 219 268 302 309 307 306 299 291 284 277 266
268 312 2 351 321 339 325 350 35 20 30 330 45 324 309 352 71 95 116 128 138 136 137 140 139 136 136 147 147 149 155 152 155 124 59 332 311 298 289 290 289 294 290 284
319 322 342 331 312 36 258 15 18 353 355 349 357 62 286 343 152 190 184 174 174 173 166 171 176 174 176 176 173 172 169 176 184 155 131 331 300 286 291 298 304 304 300 293
304 304 280 253 321 28 57 32 11 25 54 1 281 208 283 254 222 200 204 202 201 199 192 192 196 189 194 192 184 176 173 194 213 197 284 308 300 304 312 313 312 307 302 298
324 330 330 354 34 15 63 67 24 3 7 279 281 218 261 264 206 188 201 210 215 209 200 202 205 205 205 199 191 179 171 196 214 210 252 279 295 304 302 303 307 309 307 302
340 319 318 350 100 213 106 126 146 200 245 283 330 256 264 260 198 200 210 216 219 217 212 210 209 205 203 196 186 181 182 196 203 194 227 271 294 300 298 300 303 304 302 296
162 279 303 313 272 143 179 200 171 149 253 309 296 278 297 288 249 230 229 226 226 224 220 217 213 202 195 186 187 184 179 186 190 189 202 244 277 304 309 312 314 308 305 303
138 265 304 317 345 342 179 172 83 93 175 284 300 295 256 240 245 244 237 237 242 242 238 223 206 196 191 188 187 180 177 183 188 187 200 209 242 282 300 317 319 313 311 311
105 116 316 351 343 287 317 54 114 141 168 171 265 279 272 246 244 237 245 253 259 260 241 218 209 201 193 187 182 180 181 180 185 190 194 197 227 249 281 304 309 309 311 312
120 111 301 286 280 270 177 184 152 166 246 195 197 273 333 356 10 21 17 24 23 16 4 279 239 215 200 196 195 192 191 191 197 196 193 197 203 210 233 290 308 313 316 320
118 95 22 344 343 356 358 318 262 174 162 198 204 257 2 28 34 31 31 26 21 17 13 2 345 305 254 228 214 205 202 202 201 192 189 191 194 199 222 254 287 311 320 334
107 115 157 209 246 275 301 306 304 274 224 234 203 108 0 11 18 21 25 24 23 18 13 5 352 333 313 284 251 231 221 209 200 190 187 194 201 203 208 218 246 282 312 337
96 159 210 227 248 267 287 298 299 297 260 182 130 93 13 357 11 22 24 22 20 13 8 4 357 347 332 319 301 277 252 228 204 190 192 201 202 196 194 197 215 245 289 324
112 171 220 288 277 289 308 332 358 32 36 91 98 63 350 347 16 25 25 20 14 5 358 354 352 349 343 329 314 295 272 245 214 201 202 198 191 189 192 195 197 204 225 312
176 156 151 270 296 342 9 4 74 67 35 61 65 17 346 356 358 7 16 15 4 353 349 346 344 341 335 330 320 307 281 263 225 212 204 194 189 191 194 192 188 192 192 168
172 151 154 216 352 299 147 79 103 97 63 52 51 9 354 338 315 312 29 8 346 339 337 335 334 333 332 330 329 321 310 281 245 224 210 198 192 194 191 186 188 189 177 172
172 154 148 155 206 238 139 50 354 249 83 26 11 348 337 325 309 263 3 345 322 316 313 313 315 316 322 327 331 329 323 303 272 247 227 209 197 192 189 191 190 185 174 172
54 91 130 162 204 239 301 335 323 123 123 0 349 334 331 341 338 308 323 323 315 312 308 306 309 313 321 323 328 331 328 324 309 287 260 229 203 193 193 194 187 178 173 173
10 11 23 250 247 94 331 322 336 15 304 313 317 314 316 310 278 286 299 302 298 298 296 296 299 303 305 310 319 323 324 322 313 313 297 261 219 200 194 190 181 174 171 166
55 29 7 355 318 324 344 11 43 269 279 293 303 303 299 291 288 290 292 291 291 292 289 287 286 288 290 295 303 309 310 309 310 312 307 286 246 212 197 185 182 176 172 170
53 28 135 85 151 217 271 216 236 259 284 289 288 287 287 287 287 288 287 286 286 285 285 282 280 285 286 285 286 293 298 300 303 306 303 292 270 228 194 184 183 179 177 177
6 359 104 97 111 270 274 265 267 273 274 278 279 281 281 281 283 286 287 286 284 282 282 281 280 282 285 284 281 277 287 292 292 293 297 296 274 238 203 188 183 183 184 183
357 3 45 71 317 315 300 283 279 285 286 286 286 284 283 284 286 288 290 289 288 288 287 283 279 280 283 283 280 277 280 288 288 288 291 294 277 243 209 193 189 188 191 188
10 48 40 277 265 262 276 280 286 292 293 294 295 295 292 289 290 293 295 295 294 294 293 290 284 281 283 282 280 280 276 278 281 279 283 287 287 252 213 194 189 194 187 184
Height
1510 1515 1519 1513 1510 1511 1510 1511 1512 1504 1493 1493 1497 1496 1493 1492 1493 1496 1497 1499 1500 1502 1505 1506 1508 1510 1511 1511 1512 1512 1513 1513 1512 1512 1511 1510 1509 1507 1506 1505 1504 1503 1502 1501
1516 1517 1506 1502 1502 1503 1506 1512 1512 1505 1496 1496 1500 1501 1497 1496 1497 1497 1498 1499 1500 1502 1504 1505 1506 1507 1508 1509 1510 1510 1511 1511 1510 1509 1508 1506 1504 1502 1500 1499 1497 1496 1495 1494
1516 1507 1498 1498 1500 1504 1507 1511 1510 1509 1504 1501 1505 1513 1507 1501 1498 1500 1500 1500 1500 1500 1502 1503 1504 1505 1506 1507 1507 1508 1508 1508 1507 1505 1504 1501 1499 1496 1494 1492 1491 1489 1488 1487
1505 1499 1498 1500 1502 1502 1512 1502 1502 1505 1514 1521 1514 1532 1515 1506 1504 1503 1502 1502 1501 1501 1502 1503 1504 1504 1504 1505 1505 1505 1505 1504 1502 1501 1499 1497 1494 1491 1489 1487 1485 1483 1482 1480
1508 1501 1501 1503 1501 1499 1503 1498 1500 1504 1511 1521 1518 1528 1522 1510 1509 1505 1502 1501 1501 1501 1501 1501 1502 1502 1503 1503 1502 1502 1501 1500 1498 1497 1495 1492 1490 1488 1485 1482 1480 1478 1476 1474
1503 1498 1498 1498 1496 1496 1497 1502 1507 1514 1523 1536 1523 1527 1528 1515 1507 1505 1503 1501 1500 1499 1499 1500 1500 1500 1500 1500 1500 1499 1498 1496 1495 1493 1491 1488 1486 1483 1480 1477 1475 1472 1470 1468
1510 1503 1498 1496 1500 1501 1504 1524 1543 1544 1549 1543 1523 1527 1526 1505 1500 1500 1499 1498 1497 1497 1497 1497 1497 1497 1497 1497 1497 1496 1495 1493 1491 1489 1487 1485 1482 1479 1476 1473 1470 1467 1464 1462
1522 1523 1503 1498 1502 1506 1506 1520 1545 1554 1554 1544 1527 1527 1517 1500 1496 1495 1495 1494 1494 1494 1494 1494 1494 1494 1494 1494 1494 1493 1492 1490 1488 1486 1484 1481 1478 1475 1472 1469 1466 1463 1461 1458
1520 1520 1501 1497 1496 1499 1507 1514 1519 1537 1537 1542 1534 1520 1508 1499 1498 1495 1493 1492 1491 1491 1491 1491 1491 1491 1492 1491 1491 1490 1489 1487 1485 1483 1480 1478 1475 1472 1469 1466 1463 1460 1457 1454
1509 1517 1507 1499 1496 1497 1500 1506 1524 1534 1545 1551 1538 1527 1522 1506 1500 1495 1492 1490 1489 1489 1489 1489 1490 1490 1489 1489 1488 1487 1486 1484 1482 1479 1477 1474 1471 1468 1465 1462 1460 1457 1454 1451
1505 1519 1516 1508 1507 1508 1505 1508 1518 1531 1537 1547 1549 1537 1507 1500 1495 1493 1491 1490 1489 1489 1489 1488 1488 1488 1487 1486 1485 1484 1482 1480 1478 1476 1474 1471 1468 1466 1463 1460 1457 1454 1451 1449
1506 1520 1526 1516 1504 1498 1500 1505 1515 1531 1532 1533 1541 1536 1505 1500 1496 1495 1494 1493 1492 1491 1490 1488 1487 1486 1485 1483 1482 1480 1479 1477 1475 1473 1470 1468 1466 1463 1460 1458 1455 1452 1449 1447
1506 1522 1536 1531 1521 1508 1505 1502 1505 1515 1525 1532 1537 1531 1510 1504 1501 1500 1498 1496 1494 1492 1490 1489 1487 1485 1483 1481 1479 1477 1476 1474 1471 1469 1467 1465 1463 1460 1458 1456 1453 1451 1448 1446
1502 1519 1531 1536 1528 1517 1513 1505 1501 1508 1523 1524 1521 1523 1517 1511 1508 1505 1502 1499 1496 1494 1492 1490 1488 1485 1482 1480 1477 1475 1472 1470 1467 1465 1463 1461 1460 1458 1456 1454 1452 1450 1448 1446
1503 1516 1515 1515 1510 1507 1506 1503 1499 1501 1504 1513 1519 1522 1521 1517 1513 1509 1505 1501 1497 1495 1493 1491 1488 1484 1481 1478 1475 1472 1469 1466 1463 1461 1459 1458 1457 1455 1454 1452 1451 1449 1448 1447
1504 1511 1511 1512 1505 1503 1505 1503 1501 1506 1507 1511 1517 1523 1520 1517 1513 1509 1505 1502 1500 1497 1494 1491 1487 1483 1480 1476 1471 1467 1464 1461 1459 1457 1455 1454 1453 1452 1451 1451 1450 1449 1448 1448
1505 1511 1516 1521 1509 1508 1517 1513 1514 1519 1519 1518 1524 1527 1521 1516 1513 1510 1506 1503 1501 1498 1494 1490 1486 1482 1477 1473 1468 1463 1458 1455 1452 1451 1450 1449 1449 1448 1448 1448 1448 1448 1448 1448
1502 1510 1518 1521 1517 1522 1522 1514 1516 1522 1526 1524 1524 1524 1521 1518 1513 1509 1505 1503 1500 1496 1492 1488 1483 1478 1473 1468 1463 1457 1453 1449 1446 1445 1444 1444 1444 1444 1444 1445 1445 1446 1447 1448
1491 1503 1516 1523 1523 1516 1516 1516 1517 1520 1527 1527 1525 1522 1519 1514 1508 1505 1503 1501 1498 1494 1490 1485 1480 1475 1469 1464 1458 1452 1448 1444 1441 1439 1438 1438 1438 1438 1439 1440 1442 1443 1444 1446
1495 1499 1511 1518 1522 1526 1523 1519 1515 1516 1526 1526 1523 1520 1516 1510 1508 1502 1499 1496 1492 1488 1484 1479 1475 1470 1464 1459 1453 1448 1443 1439 1436 1434 1432 1431 1431 1432 1433 1435 1437 1439 1441 1444
1509 1512 1515 1519 1521 1524 1529 1521 1514 1522 1526 1524 1520 1517 1514 1511 1508 1501 1496 1491 1487 1483 1479 1474 1469 1464 1459 1454 1449 1443 1438 1434 1430 1427 1425 1424 1424 1425 1427 1429 1432 1434 1437 1441
1522 1525 1525 1525 1525 1530 1530 1525 1528 1530 1524 1521 1518 1515 1511 1507 1501 1495 1490 1485 1481 1476 1472 1467 1462 1457 1453 1449 1444 1438 1433 1428 1423 1420 1417 1416 1416 1418 1420 1423 1425 1429 1432 1436
1528 1530 1529 1531 1534 1533 1530 1529 1528 1526 1522 1519 1515 1510 1506 1500 1494 1488 1483 1478 1473 1469 1464 1459 1454 1449 1445 1442 1437 1432 1426 1421 1416 1413 1409 1407 1407 1409 1412 1415 1418 1422 1426 1430
1530 1527 1529 1532 1533 1531 1529 1527 1525 1523 1519 1514 1510 1504 1499 1493 1487 1481 1475 1470 1465 1460 1456 1451 1446 1441 1437 1433 1430 1425 1419 1415 1410 1405 1402 1399 1398 1400 1403 1406 1410 1414 1418 1423
1535 1531 1531 1534 1533 1530 1527 1525 1522 1518 1513 1508 1503 1498 1493 1487 1480 1474 1468 1462 1457 1452 1448 1443 1438 1433 1428 1425 1421 1416 1412 1407 1403 1398 1395 1391 1389 1391 1394 1398 1402 1406 1410 1415
1536 1537 1537 1537 1533 1531 1525 1520 1517 1512 1507 1502 1497 1491 1486 1481 1474 1468 1462 1456 1451 1445 1440 1435 1430 1425 1419 1415 1411 1407 1404 1400 1395 1390 1387 1384 1381 1382 1385 1390 1395 1399 1405 1410